Weather History for Orlando International, FL

Change the Weather History Date:

Wednesday, November 28, 2012

  Actual Average Record
Temperature  
Mean Temperature 63 °F 66 °F  
Max Temperature 70 °F 76 °F 89 °F (1948)
Min Temperature 55 °F 56 °F 28 °F (1903)
Degree Days  
Heating Degree Days 2 2  
Month to date heating degree days 58 39  
Since 1 July heating degree days 76 44  
Cooling Degree Days 0 3  
Month to date cooling degree days 54 142  
Year to date cooling degree days 3490 3349  
Growing Degree Days 12 (Base 50)    
Moisture  
Dew Point 56 °F    
Average Humidity 79    
Maximum Humidity 97    
Minimum Humidity 61    
Precipitation  
Precipitation 0.00 in 0.07 in 2.75 in (1911)
Month to date precipitation 0.23 2.00  
Year to date precipitation 39.81 47.98  
Sea Level Pressure  
Sea Level Pressure 30.22 in    
Wind  
Wind Speed 9 mph (North)    
Max Wind Speed 17 mph    
Max Gust Speed 22 mph    
Visibility 10 miles    
Events      
T = Trace of Precipitation, MM = Missing Value Source: NWS Daily Summary

Daily Weather History Graph

Daily Weather History Graph

Search for Another Location

Airport:

Trip Planner

Search our weather history database for the weather conditions in past years. The results will help you decide how hot, cold, wet, or windy it might be!

Date:

Astronomy

Nov. 28, 2012 Rise Set
Actual Time 6:58 AM EST 5:28 PM EST
Civil Twilight 6:32 AM EST 5:53 PM EST
Nautical Twilight 6:03 AM EST 6:22 PM EST
Astronomical Twilight 5:35 AM EST 6:51 PM EST
Moon 5:42 PM EST (11/28) 6:54 AM EST (11/28)
Length of Visible Light 11h 21m
Length of Day
10h 30m
Full, 100% of the Moon is Illuminated
Nov 28
Full
Dec 6
Last Quarter
Dec 13
New
Dec 20
First Quarter
Dec 28
Full

Hourly Weather History & Observations

Time (EST) Temp. Dew Point Humidity Pressure Visibility Wind Dir Wind Speed Gust Speed Precip Events Conditions
12:53 AM 64.0 °F 59.0 °F 84% 30.14 in 10.0 mi NW 3.5 mph - N/A   Mostly Cloudy
1:53 AM 62.1 °F 59.0 °F 90% 30.14 in 10.0 mi Calm Calm - N/A   Scattered Clouds
2:53 AM 63.0 °F 59.0 °F 87% 30.14 in 10.0 mi NW 4.6 mph - N/A   Scattered Clouds
3:53 AM 62.1 °F 59.0 °F 90% 30.15 in 10.0 mi North 3.5 mph - N/A   Scattered Clouds
4:53 AM 61.0 °F 59.0 °F 93% 30.13 in 10.0 mi Calm Calm - N/A   Partly Cloudy
5:53 AM 60.1 °F 57.9 °F 93% 30.14 in 7.0 mi Calm Calm - N/A   Partly Cloudy
6:53 AM 59.0 °F 57.0 °F 93% 30.17 in 7.0 mi North 6.9 mph - N/A   Scattered Clouds
7:53 AM 60.1 °F 57.9 °F 93% 30.20 in 10.0 mi North 8.1 mph - N/A   Mostly Cloudy
8:32 AM 62.6 °F 57.2 °F 82% 30.22 in 10.0 mi North 10.4 mph - N/A   Mostly Cloudy
8:53 AM 63.0 °F 57.9 °F 84% 30.23 in 10.0 mi North 11.5 mph - N/A   Mostly Cloudy
9:53 AM 66.0 °F 57.0 °F 73% 30.25 in 10.0 mi North 11.5 mph - N/A   Mostly Cloudy
10:28 AM 64.4 °F 57.2 °F 77% 30.26 in 10.0 mi NNE 12.7 mph - N/A   Mostly Cloudy
10:50 AM 62.6 °F 55.4 °F 77% 30.27 in 10.0 mi NNE 12.7 mph - N/A   Overcast
10:53 AM 62.1 °F 57.0 °F 84% 30.27 in 10.0 mi NNE 12.7 mph - N/A   Overcast
11:06 AM 62.6 °F 55.4 °F 77% 30.27 in 10.0 mi NNE 15.0 mph - N/A   Overcast
11:27 AM 64.4 °F 57.2 °F 77% 30.26 in 10.0 mi North 12.7 mph - N/A   Overcast
11:53 AM 64.9 °F 57.0 °F 75% 30.25 in 10.0 mi North 10.4 mph - N/A   Overcast
12:18 PM 66.2 °F 55.4 °F 68% 30.24 in 10.0 mi North 15.0 mph 21.9 mph N/A   Mostly Cloudy
12:53 PM 68.0 °F 57.0 °F 68% 30.22 in 10.0 mi North 16.1 mph 21.9 mph N/A   Mostly Cloudy
1:30 PM 69.8 °F 55.4 °F 60% 30.22 in 10.0 mi North 13.8 mph - N/A   Mostly Cloudy
1:53 PM 69.1 °F 55.9 °F 63% 30.21 in 10.0 mi NNE 12.7 mph - N/A   Mostly Cloudy
2:13 PM 69.8 °F 55.4 °F 60% 30.21 in 10.0 mi North 10.4 mph - N/A   Mostly Cloudy
2:53 PM 68.0 °F 55.9 °F 65% 30.21 in 10.0 mi North 13.8 mph - N/A   Mostly Cloudy
3:53 PM 66.0 °F 55.9 °F 70% 30.22 in 10.0 mi North 13.8 mph - N/A   Overcast
4:53 PM 64.0 °F 55.0 °F 73% 30.23 in 10.0 mi North 12.7 mph - N/A   Overcast
5:53 PM 62.1 °F 55.0 °F 78% 30.25 in 10.0 mi North 11.5 mph - N/A   Overcast
6:37 PM 59.0 °F 53.6 °F 82% 30.26 in 10.0 mi North 10.4 mph - N/A   Mostly Cloudy
6:53 PM 59.0 °F 54.0 °F 83% 30.26 in 10.0 mi North 10.4 mph - N/A   Scattered Clouds
7:53 PM 57.9 °F 54.0 °F 87% 30.26 in 10.0 mi North 11.5 mph - N/A   Partly Cloudy
8:28 PM 57.2 °F 53.6 °F 88% 30.27 in 10.0 mi NNW 10.4 mph - N/A   Mostly Cloudy
8:33 PM 57.2 °F 53.6 °F 88% 30.27 in 10.0 mi North 10.4 mph - N/A   Scattered Clouds
8:53 PM 57.0 °F 53.1 °F 87% 30.27 in 10.0 mi North 10.4 mph - N/A   Scattered Clouds
9:53 PM 55.9 °F 53.1 °F 90% 30.29 in 10.0 mi North 10.4 mph - N/A   Scattered Clouds
10:53 PM 55.0 °F 53.1 °F 93% 30.28 in 10.0 mi North 10.4 mph - N/A   Partly Cloudy
11:53 PM 55.0 °F 52.0 °F 89% 30.27 in 10.0 mi North 10.4 mph - N/A   Partly Cloudy